Weather History for Pawtucket, RI

Change the Weather History Date:

Thursday, February 13, 2014

  Actual Average Record
Temperature  
Mean Temperature 26 °F -  
Max Temperature 33 °F 35 °F 53 °F (2008)
Min Temperature 19 °F 20 °F 1 °F (2003)
Degree Days  
Heating Degree Days 39    
Moisture  
Dew Point 23 °F    
Average Humidity 82    
Maximum Humidity 93    
Minimum Humidity 68    
Precipitation  
Precipitation 0.89 in - - ()
Sea Level Pressure  
Sea Level Pressure 29.79 in    
Wind  
Wind Speed 11 mph (NNE)    
Max Wind Speed 26 mph    
Max Gust Speed 37 mph    
Visibility 4 miles    
Events      
Averages and records for this station are not official NWS values.
T = Trace of Precipitation, MM = Missing Value Source: NWS Daily Summary

Daily Weather History Graph

Daily Weather History Graph

Search for Another Location

Airport:

Trip Planner

Search our weather history database for the weather conditions in past years. The results will help you decide how hot, cold, wet, or windy it might be!

Date:

Astronomy

Feb. 13, 2014 Rise Set
Actual Time 6:44 AM EST 5:16 PM EST
Civil Twilight 6:15 AM EST 5:45 PM EST
Nautical Twilight 5:43 AM EST 6:17 PM EST
Astronomical Twilight 5:10 AM EST 6:50 PM EST
Moon 4:22 PM EST (2/13) 5:36 AM EST (2/13)
Length of Visible Light 11h 29m
Length of Day
10h 32m
Waxing Gibbous, 98% of the Moon is Illuminated
Feb 13
Waxing Gibbous
Feb 14
Full
Feb 22
Last Quarter
Mar 1
New
Mar 8
First Quarter

Hourly Weather History & Observations

Time (EST) Temp. Windchill Dew Point Humidity Pressure Visibility Wind Dir Wind Speed Gust Speed Precip Events Conditions
12:15 AM 19.4 °F 11.5 °F 10.4 °F 68% 30.36 in 10.0 mi East 5.8 mph - N/A   Overcast
12:35 AM 19.4 °F 12.8 °F 10.4 °F 68% 30.35 in 10.0 mi ENE 4.6 mph - N/A   Mostly Cloudy
12:55 AM 19.4 °F 11.5 °F 10.4 °F 68% 30.34 in 10.0 mi ENE 5.8 mph - N/A   Partly Cloudy
1:15 AM 19.4 °F 12.8 °F 10.4 °F 68% 30.33 in 10.0 mi East 4.6 mph - N/A   Scattered Clouds
1:35 AM 19.4 °F 10.4 °F 12.2 °F 74% 30.32 in 10.0 mi ENE 6.9 mph - N/A   Mostly Cloudy
1:55 AM 19.4 °F 11.5 °F 12.2 °F 74% 30.31 in 10.0 mi ENE 5.8 mph - N/A   Overcast
2:15 AM 19.4 °F 12.8 °F 12.2 °F 74% 30.31 in 10.0 mi ENE 4.6 mph - N/A   Overcast
2:35 AM 19.4 °F 11.5 °F 12.2 °F 74% 30.31 in 10.0 mi NNE 5.8 mph - N/A   Overcast
2:55 AM 19.4 °F 10.4 °F 12.2 °F 74% 30.30 in 10.0 mi NNE 6.9 mph - N/A   Overcast
3:15 AM 19.4 °F 10.4 °F 12.2 °F 74% 30.30 in 10.0 mi NE 6.9 mph - N/A   Overcast
3:35 AM 19.4 °F 10.4 °F 12.2 °F 74% 30.30 in 10.0 mi NNE 6.9 mph - N/A   Overcast
3:55 AM 19.4 °F 10.4 °F 12.2 °F 74% 30.28 in 10.0 mi NNE 6.9 mph - N/A   Overcast
4:15 AM 19.4 °F 10.4 °F 12.2 °F 74% 30.27 in 7.0 mi NNE 6.9 mph - N/A   Overcast
4:35 AM 19.4 °F 11.5 °F 12.2 °F 74% 30.26 in 2.0 mi NNE 5.8 mph - N/A   Overcast
4:55 AM 19.4 °F 11.5 °F 12.2 °F 74% 30.26 in 3.0 mi NNE 5.8 mph - N/A   Overcast
5:15 AM 19.4 °F 12.8 °F 14.0 °F 80% 30.25 in 2.0 mi NE 4.6 mph - N/A   Overcast
5:35 AM 19.4 °F 11.5 °F 14.0 °F 80% 30.25 in 2.5 mi NNE 5.8 mph - N/A   Overcast
5:55 AM 19.4 °F 9.5 °F 15.8 °F 86% 30.23 in 2.5 mi NNE 8.1 mph - N/A   Overcast
6:15 AM 21.2 °F 11.7 °F 15.8 °F 80% 30.22 in 2.5 mi NNE 8.1 mph - N/A   Overcast
6:35 AM 21.2 °F 11.7 °F 17.6 °F 86% 30.20 in 3.0 mi NNE 8.1 mph - N/A   Overcast
6:55 AM 21.2 °F 10.9 °F 17.6 °F 86% 30.19 in 1.8 mi NNE 9.2 mph - N/A   Overcast
7:15 AM 21.2 °F 10.9 °F 17.6 °F 86% 30.18 in 3.0 mi NNE 9.2 mph - N/A   Overcast
7:35 AM 23.0 °F 15.8 °F 19.4 °F 86% 30.17 in 3.0 mi NE 5.8 mph - N/A   Overcast
7:55 AM 23.0 °F 13.9 °F 19.4 °F 86% 30.16 in 0.8 mi NNE 8.1 mph - N/A   Overcast
8:15 AM 23.0 °F 13.9 °F 19.4 °F 86% 30.14 in 1.0 mi NNE 8.1 mph - N/A   Overcast
8:35 AM 23.0 °F 13.9 °F 19.4 °F 86% 30.13 in 2.0 mi NNE 8.1 mph - N/A   Overcast
8:55 AM 24.8 °F 15.3 °F 19.4 °F 80% 30.11 in 1.0 mi NNE 9.2 mph - N/A   Overcast
9:15 AM 24.8 °F 15.3 °F 19.4 °F 80% 30.08 in 0.8 mi NNE 9.2 mph - N/A   Overcast
9:35 AM 26.6 °F 17.5 °F 21.2 °F 80% 30.07 in 1.0 mi NE 9.2 mph - N/A   Overcast
9:55 AM 26.6 °F 16.8 °F 23.0 °F 86% 30.05 in 0.8 mi NNE 10.4 mph - N/A   Overcast
10:15 AM 26.6 °F 16.8 °F 24.8 °F 93% 30.02 in 0.8 mi NNE 10.4 mph - N/A   Overcast
10:35 AM 28.4 °F 19.1 °F 24.8 °F 86% 29.99 in 0.8 mi NE 10.4 mph - N/A   Overcast
10:55 AM 28.4 °F 19.1 °F 26.6 °F 93% 29.97 in 0.5 mi NNE 10.4 mph - N/A   Overcast
11:15 AM 30.2 °F 20.8 °F 26.6 °F 86% 29.94 in 0.5 mi NNE 11.5 mph - N/A   Overcast
11:35 AM 30.2 °F 20.2 °F 26.6 °F 86% 29.92 in 0.5 mi NNE 12.7 mph - N/A   Overcast
11:55 AM 32.0 °F 21.6 °F 28.4 °F 87% 29.88 in 0.5 mi NNE 15.0 mph - N/A   Overcast
12:15 PM 32.0 °F 21.6 °F 30.2 °F 93% 29.84 in 0.5 mi NE 15.0 mph 19.6 mph N/A   Overcast
12:35 PM 32.0 °F 21.6 °F 28.4 °F 87% 29.81 in 0.2 mi NNE 15.0 mph 21.9 mph N/A   Overcast
12:55 PM 32.0 °F 21.6 °F 28.4 °F 87% 29.77 in 0.2 mi NE 15.0 mph 21.9 mph N/A   Overcast
1:15 PM 32.0 °F 20.5 °F 28.4 °F 87% 29.73 in 0.5 mi NNE 18.4 mph 21.9 mph N/A   Overcast
1:35 PM 33.8 °F 22.8 °F 30.2 °F 87% 29.70 in 1.5 mi NNE 18.4 mph 25.3 mph N/A   Overcast
1:55 PM 33.8 °F 23.9 °F 28.4 °F 81% 29.68 in 0.8 mi NE 15.0 mph 26.5 mph 0.01 in   Overcast
2:35 PM 33.8 °F 21.9 °F 28.4 °F 81% 29.61 in 1.2 mi NNE 21.9 mph 27.6 mph N/A   Overcast
2:55 PM 33.8 °F 21.3 °F 28.4 °F 81% 29.59 in 2.0 mi NNE 24.2 mph 35.7 mph N/A   Overcast
3:15 PM 33.8 °F 20.8 °F 28.4 °F 81% 29.56 in 1.2 mi NNE 26.5 mph 34.5 mph N/A   Overcast
3:35 PM 33.8 °F 21.9 °F 30.2 °F 87% 29.55 in 1.8 mi NNE 21.9 mph 27.6 mph 0.01 in   Overcast
3:55 PM 33.8 °F 21.6 °F 30.2 °F 87% 29.51 in 1.0 mi NE 23.0 mph 32.2 mph 0.03 in   Overcast
4:15 PM 33.8 °F 21.3 °F 30.2 °F 87% 29.48 in 1.8 mi NNE 24.2 mph 36.8 mph 0.04 in   Overcast
4:35 PM 33.8 °F 22.2 °F 30.2 °F 87% 29.46 in 2.0 mi NNE 20.7 mph 36.8 mph 0.07 in   Overcast
4:55 PM 33.8 °F 22.5 °F 30.2 °F 87% 29.44 in 1.8 mi NNE 19.6 mph 28.8 mph 0.10 in   Overcast
5:15 PM 33.8 °F 20.8 °F 30.2 °F 87% 29.41 in 1.8 mi NNE 26.5 mph 33.4 mph 0.02 in   Overcast
5:35 PM 33.8 °F 22.2 °F 30.2 °F 87% 29.41 in 2.0 mi NNE 20.7 mph 28.8 mph 0.06 in   Overcast
5:55 PM 33.8 °F 22.5 °F 30.2 °F 87% 29.40 in 3.0 mi NNE 19.6 mph 27.6 mph 0.10 in   Overcast
6:15 PM 33.8 °F 21.9 °F 30.2 °F 87% 29.37 in 2.5 mi NNE 21.9 mph 28.8 mph 0.03 in   Overcast
6:35 PM 33.8 °F 22.2 °F 30.2 °F 87% 29.35 in 3.0 mi NNE 20.7 mph 27.6 mph 0.07 in   Overcast
6:55 PM 33.8 °F 21.9 °F 30.2 °F 87% 29.34 in 4.0 mi NNE 21.9 mph 29.9 mph 0.10 in   Overcast
7:15 PM 33.8 °F 21.9 °F 30.2 °F 87% 29.32 in 5.0 mi NNE 21.9 mph 31.1 mph 0.03 in   Overcast
7:35 PM 33.8 °F 20.8 °F 30.2 °F 87% 29.31 in 7.0 mi NNE 26.5 mph 32.2 mph 0.06 in   Overcast
7:55 PM 33.8 °F 21.3 °F 30.2 °F 87% 29.27 in 3.0 mi NNE 24.2 mph 31.1 mph 0.08 in   Overcast
8:15 PM 33.8 °F 21.9 °F 30.2 °F 87% 29.25 in 3.0 mi NNE 21.9 mph 27.6 mph 0.02 in   Overcast
8:35 PM 33.8 °F 21.6 °F 28.4 °F 81% 29.25 in 5.0 mi NNE 23.0 mph 28.8 mph 0.04 in   Overcast
8:55 PM 33.8 °F 22.8 °F 28.4 °F 81% 29.22 in 2.5 mi NNE 18.4 mph 28.8 mph 0.06 in   Overcast
9:15 PM 33.8 °F 22.8 °F 28.4 °F 81% 29.20 in 5.0 mi NNE 18.4 mph 24.2 mph 0.01 in   Overcast
9:35 PM 32.0 °F 19.5 °F 28.4 °F 87% 29.16 in 3.0 mi NNE 21.9 mph 27.6 mph 0.02 in   Overcast
9:55 PM 33.8 °F 21.3 °F 28.4 °F 81% 29.13 in 6.0 mi NNE 24.2 mph 31.1 mph 0.03 in   Overcast
10:15 PM 33.8 °F 22.2 °F 28.4 °F 81% 29.12 in 3.0 mi NNE 20.7 mph 29.9 mph 0.03 in   Overcast
10:35 PM 33.8 °F 21.9 °F 28.4 °F 81% 29.08 in 3.0 mi NNE 21.9 mph 26.5 mph 0.12 in   Overcast
10:55 PM 33.8 °F 21.9 °F 28.4 °F 81% 29.04 in 5.0 mi NNE 21.9 mph - 0.17 in   Overcast
11:15 PM 33.8 °F 22.2 °F 28.4 °F 81% 29.02 in 2.5 mi NNE 20.7 mph 28.8 mph 0.06 in   Overcast
11:35 PM 33.8 °F 22.2 °F 30.2 °F 87% 28.99 in 3.0 mi NNE 20.7 mph 29.9 mph 0.08 in   Overcast
11:55 PM 33.8 °F 23.2 °F 30.2 °F 87% 28.99 in 1.8 mi NNE 17.3 mph 26.5 mph 0.21 in   Overcast